Regional Weather Roundup
Issued by NWS

Home | Current Version | Previous Version | Graphics & Text | Print | Product List | Glossary On
Versions: 1 2 3 4 5 6 7 8 9 10 11 12 13 14 15 16 17 18 19 20 21 22 23 24 25 26 27 28 29 30 31 32 33 34 35 36 37 38 39 40 41 42 43 44 45 46 47 48 49 50
089
ASUS43 KDTX 280701
RWRMI
MICHIGAN HOURLY REGIONAL WEATHER ROUNDUP
NATIONAL WEATHER SERVICE DETROIT/PONTIAC MI
300 AM EDT WED JUN 28 2017

NOTE: "FAIR" INDICATES FEW OR NO CLOUDS BELOW 12,000 FEET WITH NO
SIGNIFICANT WEATHER AND/OR OBSTRUCTION TO VISIBILITY.

MIZ047>049-052>055-059>063-066>070-074>076-081>083-280800-
SOUTHEAST LOWER MICHIGAN

CITY           SKY/WX    TMP DP  RH WIND       PRES   REMARKS
ADRIAN         CLEAR     51  46  83 CALM      30.10S
ALMA           PTCLDY    49  48  97 CALM      30.06F
ANN ARBOR      CLEAR     44  44 100 SW3       30.08R
BAD AXE        CLEAR     53  51  92 CALM      30.05S
CARO           CLEAR     48  48 100 CALM      30.05S
DETROIT CITY   CLEAR     59  48  67 W5        30.07R
DETROIT        MOCLDY    55  48  77 S6        30.08S
FLINT          CLEAR     52  46  80 SW3       30.07R
GROSSE ILE     CLEAR     58  47  69 CALM      30.07R
HILLSDALE      CLEAR     46  43  87 CALM      30.10R
HOWELL         CLEAR     52  45  78 SW3       30.08R

CITY           SKY/WX    TMP DP  RH WIND       PRES   REMARKS
JACKSON        CLEAR     50  46  86 SW6       30.09R
LAMBERTVILLE   CLEAR     51  48  90 CALM      30.09S
LANSING        CLEAR     57  46  66 S3        30.08S
LAPEER         FAIR      49  48  97 CALM      30.07R
MASON          CLEAR     51  47  86 CALM      30.08S
MONROE         PTCLDY    53  48  84 CALM      30.08S
MT. CLEMENS    CLEAR     57  49  77 W6        30.04S
PONTIAC        CLEAR     56  49  77 CALM      30.06S
PORT HOPE        N/A     56  52  86 SW6       30.01S
PORT HURON       N/A     48  46  93 CALM      30.05S FOG
TRI CITIES     CLEAR     56  53  90 SW7       30.06S
MIDLAND        FAIR      50  49  96 CALM      30.04S
TROY           CLEAR     59  46  60 W3        30.08S
SAGINAW HB     CLEAR     55  46  71 SW7       30.04F
$$
MIZ043>046-050>051-056>058-064>065-071>073-077>080-280800-
SOUTHWEST LOWER MICHIGAN

CITY           SKY/WX    TMP DP  RH WIND       PRES   REMARKS
BATTLE CREEK   CLEAR     56  45  66 CALM      30.08F
BENTON HARBOR  CLEAR     57  44  62 S3        30.07S
BIG RAPIDS     PTCLDY    51  48  90 S8        30.04S
COLDWATER      CLEAR     51  49  92 CALM      30.09S
FREMONT        FAIR      52  49  91 CALM      30.04S
HOLLAND        CLEAR     54  46  74 S6        30.06S
GRAND RAPIDS   CLEAR     55  49  80 S7        30.05F
IONIA          FAIR      56  46  67 SW6       30.05F
KALAMAZOO      CLEAR     54  46  74 S5        30.08S
LUDINGTON      MOCLDY    58  52  79 S5        30.01S
MARSHALL       CLEAR     50  46  88 CALM      30.08F
MOUNT PLEASANT PTCLDY    54  50  89 CALM      30.03F
MUSKEGON       CLEAR     55  52  89 SE6       30.04S
SOUTH HAVEN    CLEAR     57  47  69 S6        30.06S
$$
MIZ016>042-280800-
NORTHERN LOWER MICHIGAN

CITY           SKY/WX    TMP DP  RH WIND       PRES   REMARKS
ALPENA         CLEAR     51  48  89 SW5       30.00F
BELLAIRE       CLEAR     49  47  95 S3        29.99F
CADILLAC       CLEAR     50  47  88 CALM      30.03F
FRANKFORT      CLEAR     62  51  68 S3        30.00S
GAYLORD        CLEAR     53  46  77 SW7       30.01F
GRAYLING       CLEAR     45  44  93 CALM      30.02F
HARBOR SPRINGS CLEAR     52  51  95 CALM      29.97F
HOUGHTON LAKE  CLEAR     57  49  74 VRB5      30.04S
MANISTEE       CLEAR     50  48  93 E3        30.01S
OSCODA         CLEAR     49  47  92 SW6       30.01F
PELLSTON       CLEAR     51  46  83 E3        29.97F
ROGERS CITY    CLEAR     55  47  74 SW6       30.00S
TRAVERSE CITY  PTCLDY    60  49  66 VRB6      29.98F
$$
MIZ007>008-015-280800-
EASTERN UPPER MICHIGAN

CITY           SKY/WX    TMP DP  RH WIND       PRES   REMARKS
KINROSS        CLEAR     54  51  90 S3        29.95F
MACKINAC ISLAN CLEAR     58  51  80 S7        29.95F
NEWBERRY       PTCLDY    54  53  97 S9        29.93S
S. S. MARIE    PTCLDY    54  50  86 CALM      29.93F
MUNISING         N/A     58  54  86 S8        29.90S
$$
MIZ004>006-011>014-085-280800-
CENTRAL UPPER MICHIGAN

CITY           SKY/WX    TMP DP  RH WIND       PRES   REMARKS
MANISTIQUE     PTCLDY    56  53  89 S7        29.93S
ESCANABA       PTCLDY    59  52  77 SW6       29.92F
MENOMINEE      CLOUDY    62  54  74 SW6       29.95F
SAWYER-GWINN   MOCLDY    56  50  80 SW6       29.91S
$$
MIZ001>003-009>011-084-280800-
WESTERN UPPER MICHIGAN

CITY           SKY/WX    TMP DP  RH WIND       PRES   REMARKS
IRON MOUNTAIN  MOCLDY    58  47  66 S3        29.91F
HOUGHTON       CLEAR     61  46  57 SW7       29.85F
COPPER HARBOR    N/A     58  48  69 SW7       29.83F
IRONWOOD       MOCLDY    60  47  61 S7        29.86F
$$

ABBREVIATIONS USED IN REMARKS
   TC - TEMPERATURE IN CELSIUS
  WCI - WIND CHILL INDEX
   HX - HEAT INDEX
  VSB - VISIBILITY





USA.gov is the U.S. government's official web portal to all federal, state and local government web resources and services.